Atlantic City, NJ

7:38 PM EST on December 15, 2019 (GMT -0500)
Atlantic City International

Weather History for KACY - October, 2019

Change the Weather History Date:

Monday, October 21, 2019

  Actual Average Record
Temperature  
Mean Temperature 60 °F 54 °F  
Max Temperature 68 °F 65 °F 85 °F (1947)
Min Temperature 53 °F 44 °F 26 °F (1972)
Degree Days  
Heating Degree Days 4 11  
Month to date heating degree days 112 171  
Since 1 July heating degree days 123 233  
Cooling Degree Days 0 0  
Month to date cooling degree days 39 16  
Year to date cooling degree days 1408 1050  
Growing Degree Days 10 (Base 50)    
Moisture  
Dew Point 52 °F    
Average Humidity 80    
Maximum Humidity 93    
Minimum Humidity 55    
Precipitation  
Precipitation 0.00 in 0.11 in 1.45 in (1988)
Month to date precipitation 3.64 2.30  
Year to date precipitation 35.08 33.67  
Snow  
Snow 0.00 in 0.00 in 0.00 in ()
Month to date snowfall 0.0 0.0  
Since 1 July snowfall 0.0 0.0  
Since 1 September snowfall 0.0 0.0  
Snow Depth 0.00 in    
Sea Level Pressure  
Sea Level Pressure 30.01 in    
Wind  
Wind Speed 10 mph ()    
Max Wind Speed 16 mph    
Max Gust Speed 24 mph    
Visibility 10.0 miles    
Events      
T = Trace of Precipitation, MM = Missing Value Source: Averaged Metar Reports

Daily Weather History Graph

Daily Weather History Graph

Search for Another Location

Airport or City:

Astronomy

Oct. 21, 2019 Rise Set
Actual Time 7:14 AM EDT 6:11 PM EDT
Civil Twilight 6:46 AM EDT 6:38 PM EDT
Nautical Twilight 6:15 AM EDT 7:09 PM EDT
Astronomical Twilight 5:44 AM EDT 7:40 PM EDT
Moon No Moon Rise 2:29 PM EDT (10/21)
Length of Visible Light 11h 51m
Length of Day
10h 56m
Waning Gibbous, 48% of the Moon is Illuminated
Oct 21
Waning Gibbous
Oct 27
New
Nov 4
First Quarter
Nov 12
Full
Nov 19
Last Quarter

Hourly Weather History & Observations

Time (EDT) Temp. Dew Point Humidity Pressure Visibility Wind Dir Wind Speed Gust Speed Precip Events Conditions
12:15 AM 55.0 °F 52.0 °F 89% 29.88 in 10.0 mi NNE 11.5 mph - N/A   Overcast
12:23 AM 55.0 °F 52.0 °F 89% 29.88 in 10.0 mi NNE 15.0 mph - N/A   Overcast
12:54 AM 55.0 °F 52.0 °F 89% 29.88 in 10.0 mi NNE 15.0 mph - N/A   Overcast
1:30 AM 55.0 °F 52.0 °F 89% 29.88 in 10.0 mi NNE 12.7 mph 23.0 mph N/A   Overcast
1:54 AM 55.0 °F 52.0 °F 89% 29.89 in 10.0 mi North 13.8 mph - N/A   Overcast
2:54 AM 55.0 °F 53.1 °F 93% 29.91 in 10.0 mi North 16.1 mph - N/A   Overcast
3:54 AM 55.0 °F 52.0 °F 89% 29.93 in 10.0 mi North 13.8 mph - N/A   Overcast
4:54 AM 55.0 °F 52.0 °F 89% 29.95 in 10.0 mi North 15.0 mph - N/A   Overcast
5:54 AM 54.0 °F 51.1 °F 90% 29.97 in 10.0 mi North 12.7 mph - N/A   Overcast
6:13 AM 54.0 °F 51.1 °F 90% 29.98 in 10.0 mi North 12.7 mph - N/A   Overcast
6:36 AM 54.0 °F 50.0 °F 86% 29.98 in 10.0 mi North 12.7 mph - N/A   Overcast
6:54 AM 54.0 °F 50.0 °F 86% 30.00 in 10.0 mi North 12.7 mph - N/A   Overcast
7:54 AM 53.1 °F 48.9 °F 86% 30.02 in 10.0 mi North 12.7 mph - N/A   Overcast
8:25 AM 53.1 °F 48.9 °F 86% 30.03 in 10.0 mi North 10.4 mph - N/A   Scattered Clouds
8:54 AM 54.0 °F 48.9 °F 83% 30.03 in 10.0 mi North 11.5 mph - N/A   Clear
9:54 AM 57.9 °F 50.0 °F 75% 30.03 in 10.0 mi NNE 10.4 mph - N/A   Clear
10:54 AM 62.1 °F 51.1 °F 67% 30.05 in 10.0 mi NNE 10.4 mph 18.4 mph N/A   Clear
11:54 AM 64.0 °F 51.1 °F 63% 30.05 in 10.0 mi NNE 11.5 mph - N/A   Clear
12:54 PM 68.0 °F 52.0 °F 56% 30.05 in 10.0 mi NNE 9.2 mph - N/A   Clear
1:54 PM 66.9 °F 54.0 °F 63% 30.05 in 10.0 mi East 10.4 mph - N/A   Clear
2:38 PM 64.9 °F 53.1 °F 65% 30.05 in 10.0 mi East 10.4 mph - N/A   Mostly Cloudy
2:54 PM 64.0 °F 53.1 °F 67% 30.05 in 10.0 mi East 11.5 mph - N/A   Overcast
3:54 PM 63.0 °F 52.0 °F 67% 30.06 in 10.0 mi ENE 10.4 mph - N/A   Overcast
4:54 PM 62.1 °F 52.0 °F 70% 30.08 in 10.0 mi East 8.1 mph - N/A   Overcast
5:54 PM 60.1 °F 52.0 °F 75% 30.08 in 10.0 mi ENE 8.1 mph - N/A   Overcast
6:54 PM 60.1 °F 52.0 °F 75% 30.08 in 10.0 mi East 5.8 mph - N/A   Overcast
7:54 PM 60.1 °F 53.1 °F 78% 30.10 in 10.0 mi ENE 3.5 mph - N/A   Overcast
8:54 PM 60.1 °F 54.0 °F 80% 30.10 in 10.0 mi ENE 4.6 mph - N/A   Overcast
9:54 PM 60.1 °F 54.0 °F 80% 30.12 in 10.0 mi Calm Calm - N/A   Overcast
10:54 PM 59.0 °F 54.0 °F 83% 30.11 in 10.0 mi Calm Calm - N/A   Overcast
11:54 PM 60.1 °F 54.0 °F 80% 30.11 in 10.0 mi East 3.5 mph - N/A   Overcast